This is the latest recevied weather packets stored in our database for station/object W0WFX-2. If no packets are shown the sender has not sent any weather packets the latest 10 day(s).
| Time | Temp. | Humidity | Pressure | Rain* | Wind** | Luminosity | Snow |
|---|---|---|---|---|---|---|---|
| 1788576922 | 28.33° C | 68% | 1013.3 hPa | 0 mm | - | 0 W/m² | - |
| 1788576618 | 28.33° C | 68% | 1013.2 hPa | 0 mm | - | 0 W/m² | - |
| 1788576313 | 28.33° C | 67% | 1013 hPa | 0 mm | - | 0 W/m² | - |
| 1788576008 | 28.33° C | 66% | 1013 hPa | 0 mm | - | 0 W/m² | - |
| 1788575703 | 28.33° C | 66% | 1012.9 hPa | 0 mm | - | 0 W/m² | - |
| 1788575402 | 28.89° C | 68% | 1013 hPa | 0 mm | - | 0 W/m² | - |
| 1788575097 | 28.89° C | 67% | 1012.8 hPa | 0 mm | - | 0 W/m² | - |
| 1788574793 | 28.89° C | 64% | 1012.6 hPa | 0 mm | - | 0 W/m² | - |
| 1788574492 | 29.44° C | 63% | 1012.5 hPa | 0 mm | - | 0 W/m² | - |
| 1788574188 | 29.44° C | 63% | 1012.5 hPa | 0 mm | - | 0 W/m² | - |
| 1788573888 | 29.44° C | 64% | 1012.7 hPa | 0 mm | - | 0 W/m² | - |
| 1788573587 | 29.44° C | 64% | 1012.4 hPa | 0 mm | - | 0 W/m² | - |
| 1788573286 | 29.44° C | 63% | 1012.5 hPa | 0 mm | - | 0 W/m² | - |
| 1788572985 | 30° C | 63% | 1012.4 hPa | 0 mm | - | 0 W/m² | - |
| 1788572681 | 30° C | 62% | 1012.3 hPa | 0 mm | - | 0 W/m² | - |
| 1788572376 | 30° C | 62% | 1012.3 hPa | 0 mm | - | 0 W/m² | - |
| 1788572073 | 30° C | 62% | 1011.9 hPa | 0 mm | - | 0 W/m² | - |
| 1788571767 | 30.56° C | 60% | 1012.2 hPa | 0 mm | - | 0 W/m² | - |
| 1788571462 | 30.56° C | 59% | 1012.1 hPa | 0 mm | - | 0 W/m² | - |
| 1788571159 | 30.56° C | 59% | 1012 hPa | 0 mm | - | 0 W/m² | - |
| 1788570855 | 30.56° C | 58% | 1012.1 hPa | 0 mm | - | 0 W/m² | - |
| 1788570550 | 31.11° C | 57% | 1011.9 hPa | 0 mm | - | 0 W/m² | - |
| 1788570245 | 31.11° C | 56% | 1011.9 hPa | 0 mm | - | 0 W/m² | - |
| 1788569941 | 31.67° C | 55% | 1012 hPa | 0 mm | - | 0 W/m² | - |
| 1788569637 | 31.67° C | 55% | 1012 hPa | 0 mm | - | 1 W/m² | - |
* Rain latest hour (hover to see other rain measurements)
** Current wind speed in m/s (hover to see current wind gust speed)